Regional Weather Roundup
Issued by NWS Sioux Falls, SD

Home | Current Version | Previous Version | Text Only | Print | Product List | Glossary Off
Versions: 1 2 3 4 5 6 7 8 9 10 11 12 13 14 15 16 17 18 19 20 21 22 23 24 25 26 27 28 29 30 31 32 33 34 35 36 37 38 39 40 41 42 43 44 45 46 47 48 49 50

298
ASUS43 KFSD 031402
RWRFSD

WEATHER ROUNDUP FOR SE SOUTH DAKOTA/SW MINNESOTA/NW IOWA
NATIONAL WEATHER SERVICE SIOUX FALLS SD
800 AM CST SAT DEC 03 2016

NOTE: "FAIR" INDICATES FEW OR NO CLOUDS BELOW 12,000 FEET WITH NO
SIGNIFICANT WEATHER AND OR OBSTRUCTIONS TO VISIBILITY.


SDZ038>040-050-052>070-031500-
SOUTHEAST SOUTH DAKOTA

CITY           SKY/WX    TMP DP  RH WIND       PRES   REMARKS
CHAMBERLAIN    CLOUDY    28  28 100 CALM      30.10F
HURON          MOCLDY    25  24  96 SE10      30.15F WCI  15
MADISON        FAIR      25  25 100 SE10      30.18F WCI  15
MITCHELL       CLOUDY    26  25  96 S9        30.17F WCI  17
SIOUX FALLS    PTCLDY    27  26  96 SE6       30.21F WCI  20
WINNER         CLOUDY    34  27  75 S14       30.08F WCI  25
YANKTON        MOCLDY    25  21  86 E6        30.20F WCI  18
$$

MNZ071-072-080-081-089-090-097-098-031500-
SOUTHWEST MINNESOTA

CITY           SKY/WX    TMP DP  RH WIND       PRES   REMARKS
FAIRMONT       CLOUDY    28  21  75 CALM      30.30S
JACKSON        CLOUDY    28  21  74 CALM      30.27R
LUVERNE        CLEAR     28  25  86 SE5       30.23F WCI  23
MARSHALL       CLOUDY    26  20  77 SE7       30.25F WCI  18
MONTEVIDEO     CLOUDY    23  21  93 S3        30.27F
PIPESTONE      CLEAR     25  23  93 SE6       30.21S WCI  18
REDWOOD FALLS  CLOUDY    26  19  74 S3        30.28F
TRACY          CLOUDY    27  21  79 SE6       30.25F WCI  20
WINDOM         CLOUDY    27  21  80 CALM      30.26S
WORTHINGTON    CLEAR     25  23  92 SE7       30.25S WCI  17
$$

IAZ001>003-012>014-020>022-031-032-NEZ013-014-SDZ071-031500-
NORTHWEST IOWA

CITY           SKY/WX    TMP DP  RH WIND       PRES   REMARKS
CHEROKEE       CLEAR     27  27 100 CALM      30.27S
DENISON        CLEAR     25  25 100 CALM      30.26F FOG
ESTHERVILLE    CLOUDY    28  23  81 E3        30.28R
LE MARS        CLEAR     27  27 100 CALM      30.27S
ORANGE CITY    CLEAR     28  27  93 CALM      30.24F
SHELDON        CLEAR     28  28 100 SE5       30.24S WCI  23
SIOUX CITY     PTCLDY    24  22  91 SE6       30.27F WCI  17
SPENCER        CLEAR     28  25  88 S6        30.27S WCI  22
STORM LAKE     CLEAR     27  27 100 SE3       30.26F
$$

ABBREVIATIONS USED IN REMARKS
   TC - TEMPERATURE IN CELSIUS
  WCI - WIND CHILL INDEX
   HX - HEAT INDEX
  VSB - VISIBILITY





USA.gov is the U.S. government's official web portal to all federal, state and local government web resources and services.